Other Public Products
Issued by NWS Charleston, SC

Current Version | Previous Version | Graphics & Text | Print | Product List | Glossary On
Versions: 1 2 3 4 5 6 7 8 9 10 11 12 13 14 15 16 17 18 19 20 21 22 23 24 25 26 27 28 29 30 31 32 33 34 35 36 37 38 39 40 41 42 43 44 45 46 47 48 49 50
000 FPUS82 KCHS 251628 OPUCHS TEST...KCHS/KSAV Gateway Observations...TEST National Weather Service Charleston SC 1200 PM EDT TUE APR 25 2017 NOTE: "fair" indicates few or no clouds below 12,000 feet with no significant weather and/or obstructions to visibility. SCZ050-WAZ558-NCZ071-TXZ119-213-PAZ071-DCZ001-FLZ074-172-MI076- NYZ176-178-MAZ016-IL014-TNZ027-NJZ106-GAZ044-MD014-251700- ...Gateway Observations for Charleston International... CITY SKY/WX TMP DP RH WIND PRES REMARKS Chas Airport PTSUNNY 66 56 70 NW13G22 29.71F Seattle PTSUNNY 50 44 80 S10 29.96F Charlotte CLOUDY 61 55 81 N10 29.72F Dallas DFW MOSUNNY 77 62 59 S21G33 29.52F Dallas Love MOSUNNY 76 62 62 S18G25 29.55F Philladelphia LGT RAIN 56 53 90 NE14G24 29.96F FOG Wash National LGT RAIN 59 57 93 NE20G29 29.81F FOG Baltimore LGT RAIN 57 56 96 NE18 29.83F FOG Miami MOSUNNY 79 58 48 W10 29.89F Detroit CLOUDY 61 50 67 SE9 29.86F Newark CLOUDY 55 52 89 NE13G22 30.06F Laguardia CLOUDY 56 51 84 NE29G35 30.07F J F K CLOUDY 56 53 90 E21 30.07F Boston Logan CLOUDY 48 41 76 NE21G30 30.28F Ft. Lauderdale PTSUNNY 77 58 51 W12 29.88F Chicago O`Hare PTSUNNY 71 47 42 S13 29.69S Chicago Midway PTSUNNY 70 49 47 SE9 29.70F Houston Bush PTSUNNY 79 65 62 S14G21 29.70S Houston Hobby CLOUDY 78 66 66 S15G23 29.70R Nashville MOSUNNY 67 57 70 CALM 29.80S Atlanta PTSUNNY 68 56 65 NW16 29.80R $$ GAZ044-118-TXZ119-213-NCZ071-DCZ001-MDZ014-506-PAZ021-071-NJZ106- NYZ176-178-MAZ106-OHZ011-021-055-MIZ076-KYZ091-ILZ014-INZ047- MNZ060-ONZ431-251700- ...Gateway Observations for Savannah International... CITY SKY/WX TMP DP RH WIND PRES REMARKS Savannah Arpt MOSUNNY 71 54 54 NW14G21 29.76F Atlanta PTSUNNY 68 56 65 NW16 29.80R Charlotte CLOUDY 61 55 81 N10 29.72F Dallas DFW MOSUNNY 77 62 59 S21G33 29.52F Houston Bush PTSUNNY 79 65 62 S14G21 29.70S Wash National LGT RAIN 59 57 93 NE20G29 29.81F FOG Wash Dulles LGT RAIN 58 55 90 NE16G23 29.81F FOG Baltimore LGT RAIN 57 56 96 NE18 29.83F FOG Philadelphia LGT RAIN 56 53 90 NE14G24 29.96F FOG Newark CLOUDY 55 52 89 NE13G22 30.06F Laguardia CLOUDY 56 51 84 NE29G35 30.07F J F K CLOUDY 56 53 90 E21 30.07F Boston CLOUDY 48 41 76 NE21G30 30.28F Pittsburg CLOUDY 56 52 86 E12G17 29.89F Akron PTSUNNY 63 53 70 SE12 29.88F Cleveland CLOUDY 65 51 60 SE9 29.88F Cincinnati PTSUNNY 67 54 63 E6 29.78F Columbus SUNNY 66 53 61 CALM 29.81F Detroit CLOUDY 61 50 67 SE9 29.86F Chicago O`Hare PTSUNNY 71 47 42 S13 29.69S Minneapolis CLOUDY 57 46 66 SW6 29.55R Indianapolis MOSUNNY 67 56 67 SE7 29.77F Toronto Canada LGT RAIN 48 46 93 E14G20 30.00F $$

USA.gov is the U.S. government's official web portal to all federal, state and local government web resources and services.